Change the Weather History Date:

Tuesday, October 22, 2013

  Actual Average Record
Temperature  
Mean Temperature 62 °F 61 °F  
Max Temperature 69 °F 73 °F 87 °F (1931)
Min Temperature 54 °F 50 °F 30 °F (1987)
Degree Days  
Heating Degree Days 3 5  
Month to date heating degree days 27 69  
Since 1 July heating degree days 32 79  
Cooling Degree Days 0 1  
Month to date cooling degree days 61 53  
Year to date cooling degree days 1643 1868  
Growing Degree Days 13 (Base 50)    
Moisture  
Dew Point 56 °F    
Average Humidity 82    
Maximum Humidity 100    
Minimum Humidity 63    
Precipitation  
Precipitation T in 0.11 in 2.05 in (1990)
Month to date precipitation 1.25 2.64  
Year to date precipitation 49.83 37.87  
Snow  
Snow 0.00 in 0.00 in 0.00 in (2002)
Month to date snowfall 0.0 0.0  
Since 1 July snowfall 0.0 0.0  
Since 1 September snowfall 0.0 0.0  
Snow Depth 0.00 in    
Sea Level Pressure  
Sea Level Pressure 29.95 in    
Wind  
Wind Speed 1 mph (WSW)    
Max Wind Speed 7 mph    
Max Gust Speed 9 mph    
Visibility 5 miles    
Events      
T = Trace of Precipitation, MM = Missing Value Source: NWS Daily Summary

Daily Weather History Graph

Daily Weather History Graph

Search for Another Location

Airport or City:

Trip Planner

Search our weather history database for the weather conditions in past years. The results will help you decide how hot, cold, wet, or windy it might be!

Date:

Astronomy

Oct. 22, 2013 Rise Set
Actual Time 7:44 AM EDT 6:50 PM EDT
Civil Twilight 7:18 AM EDT 7:16 PM EDT
Nautical Twilight 6:49 AM EDT 7:45 PM EDT
Astronomical Twilight 6:20 AM EDT 8:14 PM EDT
Moon 9:37 PM EDT (10/22) 11:04 AM EDT (10/22)
Length of Visible Light 11h 57m
Length of Day
11h 06m
Waning Gibbous, 87% of the Moon is Illuminated
Oct 22
Waning Gibbous
Oct 26
Last Quarter
Nov 3
New
Nov 10
First Quarter
Nov 17
Full

Hourly Weather History & Observations

Time (EDT) Temp. Dew Point Humidity Pressure Visibility Wind Dir Wind Speed Gust Speed Precip Events Conditions
12:51 AM 59.0 °F 55.9 °F 90% 30.04 in 6.0 mi Calm Calm - N/A   Clear
1:51 AM 57.9 °F 57.0 °F 97% 30.03 in 5.0 mi Calm Calm - N/A   Mostly Cloudy
2:51 AM 57.9 °F 55.9 °F 93% 30.02 in 4.0 mi Calm Calm - N/A   Scattered Clouds
3:51 AM 57.9 °F 55.9 °F 93% 30.00 in 5.0 mi Calm Calm - N/A   Overcast
4:12 AM 57.2 °F 57.2 °F 100% 30.01 in 4.0 mi Calm Calm - N/A   Overcast
4:51 AM 59.0 °F 57.0 °F 93% 30.00 in 4.0 mi Calm Calm - N/A   Overcast
5:08 AM 59.0 °F 57.2 °F 94% 30.00 in 4.0 mi Calm Calm - N/A   Overcast
5:51 AM 59.0 °F 57.0 °F 93% 30.00 in 4.0 mi Calm Calm - N/A   Mostly Cloudy
6:51 AM 57.9 °F 57.0 °F 97% 30.00 in 5.0 mi Calm Calm - 0.00 in   Overcast
7:51 AM 57.9 °F 57.0 °F 97% 30.01 in 4.0 mi Calm Calm - 0.00 in   Overcast
8:10 AM 57.2 °F 57.2 °F 100% 30.00 in 2.5 mi Calm Calm - N/A   Overcast
8:46 AM 59.0 °F 57.2 °F 94% 29.99 in 3.0 mi Calm Calm - N/A   Overcast
8:51 AM 59.0 °F 57.0 °F 93% 29.99 in 3.0 mi Calm Calm - N/A   Overcast
9:51 AM 61.0 °F 57.9 °F 90% 30.00 in 4.0 mi Calm Calm - N/A   Overcast
10:51 AM 61.0 °F 55.9 °F 83% 29.99 in 6.0 mi NW 3.5 mph - N/A   Haze
11:51 AM 64.0 °F 55.0 °F 73% 29.97 in 7.0 mi Calm Calm - 0.00 in   Overcast
12:51 PM 63.0 °F 53.1 °F 70% 29.96 in 8.0 mi Calm Calm - N/A   Overcast
1:51 PM 64.9 °F 51.1 °F 61% 29.92 in 9.0 mi SSW 3.5 mph - N/A   Overcast
2:51 PM 66.0 °F 54.0 °F 65% 29.90 in 8.0 mi SW 4.6 mph - N/A   Overcast
3:51 PM 66.9 °F 53.1 °F 61% 29.88 in 9.0 mi Variable 3.5 mph - N/A   Overcast
4:51 PM 66.9 °F 55.9 °F 68% 29.87 in 8.0 mi WSW 3.5 mph - N/A   Mostly Cloudy
5:51 PM 66.9 °F 57.0 °F 70% 29.87 in 8.0 mi Calm Calm - N/A   Overcast
6:51 PM 63.0 °F 57.0 °F 81% 29.86 in 7.0 mi Calm Calm - N/A   Scattered Clouds
7:51 PM 60.1 °F 57.0 °F 90% 29.86 in 6.0 mi Calm Calm - N/A   Mostly Cloudy
8:51 PM 59.0 °F 57.0 °F 93% 29.86 in 5.0 mi Calm Calm - N/A   Clear
9:51 PM 57.9 °F 57.0 °F 97% 29.86 in 4.0 mi Calm Calm - N/A   Clear
10:01 PM 57.2 °F 55.4 °F 94% 29.87 in 2.0 mi Calm Calm - N/A   Clear
10:11 PM 57.2 °F 55.4 °F 94% 29.87 in 4.0 mi Calm Calm - N/A   Clear
10:51 PM 57.0 °F 55.9 °F 96% 29.87 in 4.0 mi Calm Calm - N/A   Clear
11:51 PM 55.0 °F 53.1 °F 93% 29.86 in 5.0 mi Calm Calm - N/A   Clear